Hourly Data Report for May 06, 2021

MIRAMICHI RCS
NEW BRUNSWICK
Current Station Operator: ECCC - MSC

47°00'34.000" N
65°27'54.000" W
33.00 m
8100989
71744
ACQ

Download Data

Hourly Data (May 2021)
Hourly Data Report for May 6, 2021
TIME
LST
Temp Definition
°C
Dew Point Definition
°C
Rel Hum Definition
%
Precip. Amount Definition
mm

Wind Dir Definition
10's deg

Wind Spd Definition
km/h
Visibility Definition
km
Stn Press Definition
kPa
Hmdx Definition


Wind Chill Definition


Weather Definition


00:00 4.7 4.0 95 LegendMM 6 10   100.42     LegendNANA
01:00 4.6 4.0 96 LegendMM 6 10   100.34     LegendNANA
02:00 4.6 4.1 96 LegendMM 7 7   100.30     LegendNANA
03:00 4.6 4.1 97 LegendMM 7 12   100.20     LegendNANA
04:00 4.8 4.3 97 LegendMM 5 12   100.11     LegendNANA
05:00 5.0 4.2 95 LegendMM 6 18   100.06     LegendNANA
06:00 4.5 3.7 94 LegendMM 6 18   100.04     LegendNANA
07:00 4.4 3.6 94 LegendMM 7 20   100.04     LegendNANA
08:00 4.0 3.2 95 LegendMM 4 16   99.93     LegendNANA
09:00 3.2 2.4 95 LegendMM 1 10   100.01     LegendNANA
10:00 2.2 1.7 96 LegendMM 1 9   99.99     LegendNANA
11:00 3.1 2.2 94 LegendMM 3 14   100.02     LegendNANA
12:00 1.5 0.8 95 LegendMM 35 10   100.02     LegendNANA
13:00 2.3 1.5 95 LegendMM 1 8   100.04     LegendNANA
14:00 3.1 2.2 94 LegendMM 2 9   100.07     LegendNANA
15:00 4.0 2.5 90 LegendMM 36 8   100.09     LegendNANA
16:00 4.5 2.6 87 LegendMM 36 10   100.10     LegendNANA
17:00 4.5 2.3 86 LegendMM 32 12   100.19     LegendNANA
18:00 3.7 1.5 85 LegendMM 34 13   100.27     LegendNANA
19:00 2.9 0.6 85 LegendMM 35 14   100.33     LegendNANA
20:00 2.3 0.6 88 LegendMM 34 8   100.41     LegendNANA
21:00 1.6 0.2 90 LegendMM 32 7   100.49     LegendNANA
22:00 2.2 0.9 92 LegendMM 30 6   100.53     LegendNANA
23:00 2.2 0.8 90 LegendMM 34 8   100.57     LegendNANA

Notes on Data Quality.

Legend

  • E = Estimated
  • M = Missing
  • NA = Not Available*
  • [empty] = Indicates an unobserved value
Date modified: